Racine, WI

2:33 PM CDT on September 25, 2017 (GMT -0500)
Batten

Weather History for KRAC - November, 2013

Change the Weather History Date:

Friday, November 22, 2013

  Actual Average Record
Temperature  
Mean Temperature 34 °F -  
Max Temperature 41 °F 41 °F 65 °F (1990)
Min Temperature 26 °F 27 °F 8 °F (1964)
Degree Days  
Heating Degree Days 31    
Moisture  
Dew Point 27 °F    
Average Humidity 76    
Maximum Humidity 93    
Minimum Humidity 54    
Precipitation  
Precipitation 0.04 in - - ()
Sea Level Pressure  
Sea Level Pressure 30.39 in    
Wind  
Wind Speed 11 mph (NNW)    
Max Wind Speed 18 mph    
Max Gust Speed 28 mph    
Visibility 8 miles    
Events Rain , Snow    
Averages and records for this station are not official NWS values.
T = Trace of Precipitation, MM = Missing Value Source: NWS Daily Summary

Daily Weather History Graph

Daily Weather History Graph

Search for Another Location

Airport or City:

Trip Planner

Search our weather history database for the weather conditions in past years. The results will help you decide how hot, cold, wet, or windy it might be!

Date:

Astronomy

Nov. 22, 2013 Rise Set
Actual Time 6:51 AM CST 4:22 PM CST
Civil Twilight 6:20 AM CST 4:53 PM CST
Nautical Twilight 5:46 AM CST 5:28 PM CST
Astronomical Twilight 5:12 AM CST 6:01 PM CST
Moon 8:56 PM CST (11/22) 10:33 AM CST (11/22)
Length of Visible Light 10h 32m
Length of Day
9h 30m
Waning Gibbous, 78% of the Moon is Illuminated
Nov 22
Waning Gibbous
Nov 25
Last Quarter
Dec 2
New
Dec 9
First Quarter
Dec 17
Full

Hourly Weather History & Observations

Time (CST) Temp. Windchill Dew Point Humidity Pressure Visibility Wind Dir Wind Speed Gust Speed Precip Events Conditions
12:53 AM 41.0 °F 37.1 °F 36.0 °F 82% 30.24 in 5.0 mi NW 5.8 mph - N/A   Haze
1:16 AM 41.0 °F 35.2 °F 36.0 °F 82% 30.23 in 5.0 mi NNW 9.2 mph - N/A   Haze
1:53 AM 41.0 °F 35.8 °F 36.0 °F 82% 30.25 in 5.0 mi NNW 8.1 mph - N/A   Haze
2:53 AM 39.9 °F 33.9 °F 35.1 °F 83% 30.27 in 6.0 mi NNW 9.2 mph - N/A   Haze
3:53 AM 39.0 °F 30.6 °F 36.0 °F 89% 30.29 in 4.0 mi NNW 15.0 mph 20.7 mph 0.01 in Rain Light Rain
4:06 AM 39.0 °F 32.8 °F 36.0 °F 89% 30.28 in 3.0 mi North 9.2 mph - 0.01 in Rain Light Rain
4:15 AM 37.9 °F 28.5 °F 36.0 °F 93% 30.28 in 2.5 mi North 17.3 mph 23.0 mph 0.01 in Rain Light Rain
4:22 AM 37.0 °F 27.7 °F 35.1 °F 93% 30.28 in 4.0 mi North 16.1 mph - 0.01 in Rain Light Rain
4:53 AM 36.0 °F 26.3 °F 34.0 °F 93% 30.31 in 7.0 mi North 16.1 mph 24.2 mph 0.02 in Rain Light Rain
5:14 AM 35.1 °F 24.5 °F 32.0 °F 89% 30.30 in 6.0 mi North 18.4 mph 27.6 mph 0.01 in Snow Light Snow
5:53 AM 35.1 °F 26.4 °F 33.1 °F 92% 30.33 in 10.0 mi NNW 12.7 mph - 0.01 in   Overcast
6:53 AM 34.0 °F 24.2 °F 30.0 °F 85% 30.37 in 10.0 mi North 15.0 mph - 0.00 in   Overcast
7:53 AM 33.1 °F 24.9 °F 30.0 °F 89% 30.41 in 2.5 mi NNW 10.4 mph - 0.00 in Snow Light Snow
8:03 AM 33.1 °F 23.0 °F 28.9 °F 85% 30.39 in 5.0 mi NNW 15.0 mph - 0.00 in Snow Light Snow
8:53 AM 32.0 °F 21.6 °F 28.0 °F 85% 30.43 in 6.0 mi North 15.0 mph 19.6 mph 0.00 in Snow Light Snow
9:09 AM 32.0 °F 22.5 °F 27.0 °F 82% 30.42 in 10.0 mi North 12.7 mph 20.7 mph 0.00 in   Overcast
9:53 AM 32.0 °F 21.6 °F 26.1 °F 79% 30.46 in 10.0 mi NNW 15.0 mph - 0.00 in   Overcast
10:03 AM 33.1 °F 23.0 °F 26.1 °F 75% 30.44 in 10.0 mi NNW 15.0 mph - N/A   Mostly Cloudy
10:27 AM 33.1 °F 24.4 °F 25.0 °F 72% 30.44 in 10.0 mi NNW 11.5 mph - N/A   Mostly Cloudy
10:53 AM 34.0 °F 23.0 °F 26.1 °F 73% 30.45 in 10.0 mi North 18.4 mph 21.9 mph N/A   Mostly Cloudy
11:53 AM 36.0 °F 27.5 °F 25.0 °F 64% 30.43 in 10.0 mi North 12.7 mph - N/A   Partly Cloudy
12:53 PM 36.0 °F 29.0 °F 24.1 °F 62% 30.44 in 10.0 mi NW 9.2 mph - N/A   Mostly Cloudy
1:10 PM 37.9 °F 28.9 °F 25.0 °F 60% 30.42 in 10.0 mi North 16.1 mph 19.6 mph N/A   Mostly Cloudy
1:53 PM 37.9 °F 30.5 °F 23.0 °F 55% 30.45 in 10.0 mi North 11.5 mph - N/A   Partly Cloudy
2:53 PM 37.0 °F 31.6 °F 21.9 °F 54% 30.47 in 10.0 mi NW 6.9 mph - N/A   Clear
3:53 PM 36.0 °F 29.0 °F 21.0 °F 55% 30.48 in 10.0 mi NW 9.2 mph - N/A   Clear
4:53 PM 33.1 °F 26.9 °F 21.9 °F 64% 30.49 in 10.0 mi WNW 6.9 mph - N/A   Clear
5:53 PM 30.9 °F 27.5 °F 21.9 °F 69% 30.48 in 10.0 mi West 3.5 mph - N/A   Clear
6:53 PM 30.0 °F 25.2 °F 21.9 °F 72% 30.47 in 10.0 mi WNW 4.6 mph - N/A   Clear
7:53 PM 28.9 °F 21.9 °F 21.0 °F 72% 30.46 in 10.0 mi West 6.9 mph - N/A   Clear
8:53 PM 28.0 °F 20.0 °F 19.9 °F 72% 30.45 in 10.0 mi West 8.1 mph - N/A   Clear
9:53 PM 28.0 °F 20.0 °F 19.0 °F 69% 30.45 in 10.0 mi West 8.1 mph - N/A   Clear
10:53 PM 27.0 °F 18.7 °F 18.0 °F 69% 30.45 in 10.0 mi West 8.1 mph - N/A   Clear
11:53 PM 26.1 °F 19.4 °F 16.0 °F 66% 30.45 in 10.0 mi West 5.8 mph - N/A   Clear